(55) Pandora
ephemeris date magn radius delta ra dec elong phase
Today28 Jul 202613.83.113 AU3.204 AU13h09m-11°00'75.7°18.4°
Opposition5 Jul 202711.52.712 AU1.708 AU19h05m-34°04'168.5°4.3°
(55) Pandora - 2026-07-28
astro.vanbuitenen.nl


 
-1 year
-1 month
-1 day
Now
+1 day
+1 month
+1 year

The interactive orbit chart above shows the body's path through the solar system and its position at the given date. Green and blue lines are shown perpendicular to the ecliptic plane: Green if the path is above the ecliptic plane, blue if it is below. (Left-click and drag to rotate the view; Right-click and drag to move the view; Use scroll wheel to zoom in our out.)

The orbital elements of Pandora are:

            e (Eccentricity)                : 0.1449760
            a (Semimajor axis)              : 2.7580540
            i (Inclination)                 : 7.17612
            Ω (Longitude of ascending node) : 10.28341
            ω (Argument of perihelion)      : 4.89075
            M (Mean anomaly)                : 200.62853
            Epoch                           : 2026 Jun 09

            L (Longitude of perihelion)     : 15.13603
            B (Latitude of perihelion)      : 0.61022
            P (Orbital period in years)     : 4.58            
        

The light curve chart below shows the estimated development of the minor planet's magnitude.


The all-sky chart below shows the path of the minor planet over the same period as the light curve. The current position is marked yellow.





The following chart shows the path of the minor planet in the next few days. The field of view is optimized for (~10x50) binoculars and finderscopes.




Ephemerides:
Date       Time       RA (2000)    DEC (2000)    delta   radius  elong  phase   PA    magn
2026-07-28 00:00 UT   13 09 46.9   -11 00 42     3.204    3.113   75.7   18.4   113   13.8 
2026-07-28 15:15 UT   13 10 19.3   -11 04 07     3.213    3.113   75.2   18.4   113   13.8 
2026-07-29 00:00 UT   13 10 38.1   -11 06 05     3.217    3.113   75.0   18.4   113   13.8 
2026-07-30 00:00 UT   13 11 29.9   -11 11 32     3.230    3.112   74.3   18.3   113   13.8 
2026-07-31 00:00 UT   13 12 22.3   -11 17 02     3.243    3.111   73.5   18.2   113   13.8 
2026-08-01 00:00 UT   13 13 15.5   -11 22 36     3.256    3.111   72.8   18.2   113   13.8 
2026-08-02 00:00 UT   13 14 09.3   -11 28 13     3.268    3.110   72.1   18.1   113   13.8 
2026-08-03 00:00 UT   13 15 03.7   -11 33 54     3.281    3.109   71.4   18.0   113   13.8 
2026-08-04 00:00 UT   13 15 58.8   -11 39 38     3.293    3.109   70.7   17.9   113   13.8 
2026-08-05 00:00 UT   13 16 54.6   -11 45 25     3.306    3.108   70.0   17.9   113   13.8 
2026-08-06 00:00 UT   13 17 51.0   -11 51 15     3.318    3.108   69.3   17.8   113   13.8 
2026-08-07 00:00 UT   13 18 48.0   -11 57 08     3.331    3.107   68.6   17.7   113   13.8 
2026-08-08 00:00 UT   13 19 45.6   -12 03 04     3.343    3.106   67.9   17.6   113   13.8 
2026-08-09 00:00 UT   13 20 43.9   -12 09 04     3.355    3.106   67.2   17.5   113   13.8 
2026-08-10 00:00 UT   13 21 42.7   -12 15 06     3.367    3.105   66.5   17.4   113   13.8 
2026-08-11 00:00 UT   13 22 42.2   -12 21 11     3.380    3.104   65.8   17.3   113   13.8 
2026-08-12 00:00 UT   13 23 42.3   -12 27 18     3.392    3.104   65.1   17.2   113   13.8 
2026-08-13 00:00 UT   13 24 42.9   -12 33 29     3.403    3.103   64.4   17.1   113   13.8 
2026-08-14 00:00 UT   13 25 44.1   -12 39 42     3.415    3.102   63.7   17.0   113   13.8 
2026-08-15 00:00 UT   13 26 45.9   -12 45 57     3.427    3.102   63.0   16.9   113   13.8 
2026-08-16 00:00 UT   13 27 48.3   -12 52 15     3.439    3.101   62.3   16.8   113   13.8 
2026-08-17 00:00 UT   13 28 51.2   -12 58 36     3.450    3.100   61.6   16.7   113   13.8 
2026-08-18 00:00 UT   13 29 54.7   -13 04 59     3.462    3.099   61.0   16.6   113   13.9 
2026-08-19 00:00 UT   13 30 58.7   -13 11 24     3.473    3.099   60.3   16.5   114   13.9 
2026-08-20 00:00 UT   13 32 03.3   -13 17 51     3.485    3.098   59.6   16.4   114   13.9 
2026-08-21 00:00 UT   13 33 08.4   -13 24 20     3.496    3.097   58.9   16.2   114   13.9 
2026-08-22 00:00 UT   13 34 14.0   -13 30 52     3.507    3.097   58.3   16.1   114   13.9 
2026-08-23 00:00 UT   13 35 20.1   -13 37 25     3.518    3.096   57.6   16.0   114   13.9 
2026-08-24 00:00 UT   13 36 26.8   -13 44 01     3.529    3.095   56.9   15.9   114   13.9 
2026-08-25 00:00 UT   13 37 33.9   -13 50 38     3.540    3.095   56.2   15.8   114   13.9 
2026-08-26 00:00 UT   13 38 41.6   -13 57 17     3.551    3.094   55.6   15.6   114   13.9 
2026-08-27 00:00 UT   13 39 49.7   -14 03 58     3.561    3.093   54.9   15.5   114   13.9 


    Terminology:
            
    delta:  distance between minor planet and earth in AU
    radius: distance between minor planet and sun in AU
    magn:   magnitude (brightness) estimate    
    ra:     right ascension in hours (24h = 360deg)
    dec:    declination in degrees
    elong:  elongation in degrees (angle sun-earth-minor planet)    
    phase:  phase angle in degrees (angle sun-minor planet-earth)        
    AU:     Astronomical Unit (mean distance between earth and sun: 149597870.7 km
    

Orbital elements provided by the MPC (Minor Planet Center).
Calculations by a modified version of AAPlus, a C# implementation of the AA+ project by PJ Naughter from the algorithms presented in the book "Astronomical Algorithms" by Jean Meeus.
NGC2000 dso catalog and star labels from VizieR as provided by the Strasbourg astronomical Data Center.
Tycho2 catalog from the ESO archive.